Le nostre stazioni meteo in Italia

Pubblicità
Il mio iltempo24.it
Lyon/Bron, Francia (7480): Temperatura & dewpoint: 19.01.2020 06:00:00 - 25.01.2020 06:00:00 (CET)Lyon/Bron, Francia (7480): Temperatura 5cm: 19.01.2020 06:00:00 - 25.01.2020 06:00:00 (CET)Lyon/Bron, Francia (7480): Temperatura -20cm: 19.01.2020 06:00:00 - 25.01.2020 06:00:00 (CET)Lyon/Bron, Francia (7480): velocità del vento & gusts: 19.01.2020 06:00:00 - 25.01.2020 06:00:00 (CET)Lyon/Bron, Francia (7480): direzione del vento: 19.01.2020 06:00:00 - 25.01.2020 06:00:00 (CET)Lyon/Bron, Francia (7480): reduced air pressure: 19.01.2020 06:00:00 - 25.01.2020 06:00:00 (CET)Lyon/Bron, Francia (7480): visibility: 19.01.2020 06:00:00 - 25.01.2020 06:00:00 (CET)Lyon/Bron, Francia (7480): ore di luce: 19.01.2020 06:00:00 - 25.01.2020 06:00:00 (CET)Lyon/Bron, Francia (7480): precipitazioni: 19.01.2020 06:00:00 - 25.01.2020 06:00:00 (CET)
Data & Tempo tt [°C] td [°C] tt 5cm [°C] tt -20cm [°C] ff [km/h] ff [kn] fx [km/h] fx [kn] dd ppp [hPa] vv [km] sd [min] rr [mm]
25.01.2020 06:00:00 - - - - - - - - - - - - -
25.01.2020 05:00:00 2,1 1,8 1,0 4,5 4 2 5 3 SSE 1022,8 1,7 0 0,0
25.01.2020 04:00:00 1,9 1,6 0,4 4,6 2 1 6 3 E 1023,1 1,2 0 0,0
25.01.2020 03:00:00 1,3 0,9 -0,7 4,7 6 3 8 4 S 1023,6 1,6 0 0,0
25.01.2020 02:00:00 1,3 0,9 -1,1 4,7 2 1 4 2 SE 1023,8 1,4 0 0,0
25.01.2020 01:00:00 0,9 0,2 -1,6 4,7 3 2 4 2 ONO 1024,0 0,2 0 0,0
25.01.2020 00:00:00 1,7 0,8 -1,3 4,8 2 1 5 3 E 1023,7 0,9 0 0,0
24.01.2020 23:00:00 2,7 1,7 -0,3 4,8 5 3 7 4 N 1023,6 1,9 0 0,0
24.01.2020 22:00:00 4,0 2,5 1,5 4,8 0 0 11 6 N 1023,4 2,8 0 0,0
24.01.2020 21:00:00 4,5 3,0 2,6 4,7 4 2 5 3 E 1023,3 4,6 0 0,0
24.01.2020 20:00:00 5,0 3,3 2,9 4,7 4 2 5 3 SSO 1023,5 6 0 0,0
24.01.2020 19:00:00 5,6 3,3 3,0 4,6 0 0 5 3 N 1023,2 5 0 0,0
24.01.2020 18:00:00 6,4 3,7 4,7 4,4 4 2 7 4 E 1023,0 6 0 0,0
24.01.2020 17:00:00 7,1 3,5 5,8 4,3 3 2 9 5 NNE 1022,8 7 0 0,0
24.01.2020 16:00:00 7,6 2,9 7,9 4,1 6 3 12 6 NNE 1022,9 7 0 0,0
24.01.2020 15:00:00 7,6 3,3 9,8 3,9 7 4 12 6 NO 1023,2 6 33 0,0
24.01.2020 14:00:00 6,6 2,7 9,0 3,8 2 1 10 5 ENE 1023,8 6 60 0,0
24.01.2020 13:00:00 3,3 2,3 3,5 3,8 5 3 11 6 NE 1024,8 3,6 42 0,0
24.01.2020 12:00:00 0,7 0,6 1,5 3,8 4 2 9 5 SSE 1026,1 2,0 0 0,0
24.01.2020 11:00:00 0,0 0,0 -0,2 3,8 3 1 7 4 SO 1026,5 0,2 0 0,0
24.01.2020 10:00:00 -0,7 -0,8 -0,9 3,8 4 2 9 5 SSO 1026,2 0,1 0 0,0
24.01.2020 09:00:00 -1,1 -1,2 -1,6 3,8 2 1 5 3 SSO 1026,4 0,2 0 0,0
24.01.2020 08:00:00 -1,4 -1,5 -1,7 3,9 3 1 5 3 N 1026,1 0,1 0 0,0
24.01.2020 07:00:00 -1,3 -1,4 -1,4 3,9 0 0 11 6 N 1026,3 0,3 0 0,0
24.01.2020 06:00:00 -0,9 -1,0 -1,2 3,9 5 3 8 4 ESE 1026,1 0,1 0 0,0
24.01.2020 05:00:00 -1,0 -1,1 -1,2 3,9 3 1 7 4 NE 1025,9 0,2 0 0,0
24.01.2020 04:00:00 -0,8 -0,9 -1,4 3,9 5 3 12 6 NNE 1026,2 0,1 0 0,0
24.01.2020 03:00:00 -1,4 -1,5 -1,4 3,9 2 1 5 3 SSO 1026,7 0,2 0 0,0
24.01.2020 02:00:00 -1,4 -1,5 -1,5 3,9 3 2 8 4 ESE 1026,6 0,1 0 0,0
24.01.2020 01:00:00 -1,2 -1,3 -1,2 4,0 3 2 8 4 ONO 1027,2 0,1 0 0,0
24.01.2020 00:00:00 -1,1 -1,4 -1,2 4,0 2 1 6 3 E 1027,5 0,1 0 0,0
23.01.2020 23:00:00 -0,9 -1,0 -1,1 4,0 4 2 8 4 ESE 1027,5 0,1 0 0,0
23.01.2020 22:00:00 -0,9 -1,2 -1,1 4,0 4 2 8 4 ENE 1027,7 0,1 0 0,0
23.01.2020 21:00:00 -0,7 -1,1 -0,9 4,0 0 0 7 4 N 1027,7 0,1 0 0,0
23.01.2020 20:00:00 -0,4 -0,8 -1,0 4,0 6 3 10 6 E 1027,5 0,2 0 0,0
23.01.2020 19:00:00 -0,2 -1,0 -0,7 4,0 6 3 12 6 E 1027,4 1,4 0 0,0
23.01.2020 18:00:00 0,4 -0,9 -0,3 3,9 6 4 9 5 ESE 1027,0 2,2 0 0,0
23.01.2020 17:00:00 1,1 -0,5 1,2 3,8 6 3 10 5 ENE 1026,6 3,2 0 0,0
23.01.2020 16:00:00 1,1 -0,7 1,7 3,8 5 3 10 6 NNE 1026,7 3,4 3 0,0
23.01.2020 15:00:00 1,1 -0,8 2,5 3,7 5 3 11 6 N 1027,0 3,3 0 0,0
23.01.2020 14:00:00 0,9 -0,7 2,8 3,7 6 3 11 6 NNE 1027,7 3,1 0 0,0
23.01.2020 13:00:00 0,3 -0,7 1,0 3,7 3 2 11 6 ENE 1028,4 2,6 0 0,0
23.01.2020 12:00:00 -0,1 -0,5 -0,2 3,7 4 2 7 4 ENE 1029,0 2,0 0 0,0
23.01.2020 11:00:00 -0,9 -1,2 -1,2 3,8 5 3 8 5 N 1029,3 1,5 0 0,0
23.01.2020 10:00:00 -1,6 -1,9 -2,1 3,8 7 4 13 7 NE 1029,0 0,5 0 0,0
23.01.2020 09:00:00 -2,4 -2,7 -3,5 3,9 8 4 12 6 NNE 1029,3 0,1 0 0,0
23.01.2020 08:00:00 -2,5 -3,1 -5,3 4,0 3 2 8 4 NNE 1029,4 2,0 0 0,0
23.01.2020 07:00:00 -2,6 -3,4 -5,1 4,0 0 0 4 2 N 1029,5 1,7 0 0,0
23.01.2020 06:00:00 -2,4 -3,2 -5,0 4,1 3 2 6 4 ESE 1029,6 2,3 0 0,0
23.01.2020 05:00:00 -1,9 -2,7 -4,0 4,1 7 4 8 5 NE 1029,5 2,7 0 0,0
23.01.2020 04:00:00 -1,8 -2,6 -3,4 4,3 3 1 5 3 SE 1030,1 2,4 0 0,0
23.01.2020 03:00:00 -1,4 -2,4 -3,6 4,3 0 0 5 3 N 1030,5 2,5 0 0,0
23.01.2020 02:00:00 -1,3 -2,3 -3,3 4,4 3 2 5 3 SE 1030,8 3,4 0 0,0
23.01.2020 01:00:00 -0,7 -1,7 -2,7 4,4 0 0 5 3 N 1031,4 3,3 0 0,0
23.01.2020 00:00:00 -0,5 -1,6 -2,5 4,5 0 0 4 2 N 1031,6 3,8 0 0,0
22.01.2020 23:00:00 -0,3 -1,6 -3,0 4,5 2 1 7 4 O 1031,6 4,2 0 0,0
22.01.2020 22:00:00 -0,4 -2,0 -3,0 4,6 4 2 7 4 ONO 1032,0 4,2 0 0,0
22.01.2020 21:00:00 0,9 -0,9 -1,8 4,6 4 2 6 3 NNE 1031,9 4,6 0 0,0
22.01.2020 20:00:00 1,3 -0,9 -1,2 4,6 5 3 6 4 N 1032,0 6 0 0,0
22.01.2020 19:00:00 2,3 -0,5 -0,6 4,5 4 2 7 4 NNO 1031,9 7 0 0,0
22.01.2020 18:00:00 2,7 -0,8 -0,5 4,5 4 2 6 3 NNO 1031,8 8 0 0,0
22.01.2020 17:00:00 4,0 -0,6 2,2 4,4 0 0 4 2 N 1031,6 9 0 0,0
22.01.2020 16:00:00 4,5 -0,5 5,5 4,3 3 2 9 5 ONO 1031,7 9 0 0,0
22.01.2020 15:00:00 4,8 -0,4 7,4 4,2 6 3 16 8 N 1032,4 10 29 0,0
22.01.2020 14:00:00 4,3 -0,5 6,4 4,1 10 5 16 8 N 1033,1 10 42 0,0
22.01.2020 13:00:00 3,3 -0,9 3,5 4,1 7 4 14 8 NNE 1034,4 9 43 0,0
22.01.2020 12:00:00 1,5 -1,2 2,0 4,2 8 4 11 6 N 1035,0 6 0 0,0
22.01.2020 11:00:00 0,8 -1,4 0,1 4,2 2 1 6 3 OSO 1035,1 5 11 0,0
22.01.2020 10:00:00 -0,8 -1,8 -2,2 4,3 5 3 9 5 NNO 1034,4 3,9 0 0,0
22.01.2020 09:00:00 -2,0 -2,7 -4,8 4,4 4 2 5 3 S 1034,8 4,0 0 0,0
22.01.2020 08:00:00 -2,8 -3,6 -5,0 4,4 3 1 4 2 S 1034,5 4,0 0 0,0
22.01.2020 07:00:00 -2,9 -4,0 -5,1 4,5 0 0 4 2 N 1034,9 3,2 0 0,0
22.01.2020 06:00:00 -2,4 -3,2 -5,0 4,6 3 2 4 2 N 1035,1 3,1 0 0,0
22.01.2020 05:00:00 -1,9 -3,0 -4,4 4,7 3 1 5 3 E 1035,4 3,9 0 0,0
22.01.2020 04:00:00 -1,2 -2,5 -2,9 4,7 3 1 4 2 SE 1035,7 6 0 0,0
22.01.2020 03:00:00 -0,9 -2,2 -2,6 4,8 0 0 7 4 N 1036,1 5 0 0,0
22.01.2020 02:00:00 -1,2 -2,6 -2,8 4,9 2 1 5 3 E 1036,0 6 0 0,0
22.01.2020 01:00:00 -0,7 -2,3 -2,7 5,0 0 0 4 2 N 1036,3 6 0 0,0
22.01.2020 00:00:00 -0,5 -2,4 -2,5 5,0 3 1 6 3 SE 1037,0 7 0 0,0
21.01.2020 23:00:00 0,4 -2,0 -1,9 5,1 2 1 6 3 SE 1037,1 8 0 0,0
21.01.2020 22:00:00 0,0 -2,2 -2,6 5,1 3 1 5 3 SO 1037,5 8 0 0,0
21.01.2020 21:00:00 0,0 -2,9 -2,4 5,2 2 1 4 2 SSO 1037,4 12 0 0,0
21.01.2020 20:00:00 1,2 -2,7 -1,6 5,2 0 0 6 3 N 1037,4 14 0 0,0
21.01.2020 19:00:00 2,5 -2,6 -0,2 5,1 5 3 11 6 NNO 1036,8 16 0 0,0
21.01.2020 18:00:00 3,1 -2,2 1,1 5,1 8 4 12 6 NNE 1036,8 18 0 0,0
21.01.2020 17:00:00 4,4 -2,0 3,5 5,0 7 4 14 7 NE 1036,5 18 0 0,0
21.01.2020 16:00:00 5,3 -1,8 6,4 4,8 9 5 12 7 NNE 1037,0 18 0 0,0
21.01.2020 15:00:00 5,6 -2,3 8,4 4,7 6 4 12 6 N 1037,7 19 39 0,0
21.01.2020 14:00:00 5,9 -2,0 7,1 4,6 4 2 8 4 NNE 1038,6 16 31 0,0
21.01.2020 13:00:00 5,3 -1,6 7,5 4,6 3 2 8 4 SE 1039,4 15 55 0,0
21.01.2020 12:00:00 3,8 -2,0 5,5 4,6 2 1 8 4 SO 1040,4 15 29 0,0
21.01.2020 11:00:00 2,1 -2,2 1,2 4,7 3 2 10 6 NNO 1040,8 14 36 0,0
21.01.2020 10:00:00 0,7 -2,0 -2,4 4,8 6 4 9 5 N 1040,8 13 45 0,0
21.01.2020 09:00:00 -1,3 -2,7 -3,3 4,8 3 1 10 5 ONO 1040,7 10 0 0,0
21.01.2020 08:00:00 -0,7 -2,4 -2,6 4,9 7 4 11 6 N 1040,1 12 0 0,0
21.01.2020 07:00:00 -0,6 -2,7 -2,5 5,0 4 2 5 3 NE 1040,0 12 0 0,0
21.01.2020 06:00:00 -0,1 -2,2 -1,9 5,0 5 3 6 3 N 1039,4 15 0 0,0
21.01.2020 05:00:00 -0,3 -2,5 -2,0 5,1 3 1 5 3 SSE 1039,6 17 0 0,0
21.01.2020 04:00:00 -0,4 -2,6 -1,9 5,1 0 0 4 2 N 1039,4 18 0 0,0
21.01.2020 03:00:00 0,1 -2,8 -1,7 5,2 3 2 4 2 SE 1040,0 20 0 0,0
21.01.2020 02:00:00 0,9 -3,0 -1,1 5,3 3 2 7 4 NNO 1039,8 24 0 0,0
21.01.2020 01:00:00 1,5 -2,6 -0,1 5,4 0 0 10 6 N 1040,0 24 0 0,0
21.01.2020 00:00:00 1,3 -2,5 -0,7 5,4 0 0 9 5 N 1039,9 19 0 0,0
20.01.2020 23:00:00 1,1 -2,5 -1,0 5,5 2 1 8 4 SO 1039,5 16 0 0,0
20.01.2020 22:00:00 2,0 -2,9 -0,7 5,5 8 5 15 8 NO 1039,0 26 0 0,0
20.01.2020 21:00:00 2,5 -2,6 0,4 5,6 4 2 16 9 OSO 1039,3 28 0 0,0
20.01.2020 20:00:00 3,1 -2,4 1,0 5,5 10 5 17 9 NNO 1038,8 27 0 0,0
20.01.2020 19:00:00 4,3 -1,9 2,7 5,5 11 6 23 12 NNO 1038,9 31 0 0,0
20.01.2020 18:00:00 5,1 -1,6 3,7 5,4 13 7 22 12 NNO 1038,5 36 0 0,0
20.01.2020 17:00:00 6,4 -2,0 5,6 5,3 16 9 27 15 NNO 1038,4 46 47 0,0
20.01.2020 16:00:00 7,2 -2,8 8,7 5,1 16 9 25 13 NNO 1038,1 56 60 0,0
20.01.2020 15:00:00 7,1 -2,6 9,3 5,0 8 5 21 12 N 1038,3 48 60 0,0
20.01.2020 14:00:00 6,2 -3,2 8,6 4,9 16 8 23 13 NO 1038,6 56 60 0,0
20.01.2020 13:00:00 5,2 -1,9 8,7 4,9 10 6 21 12 NO 1039,2 34 56 0,0
20.01.2020 12:00:00 4,0 -1,8 8,2 5,0 9 5 19 10 NO 1039,6 34 60 0,0
20.01.2020 11:00:00 3,2 -1,9 1,7 5,0 11 6 17 9 NNO 1039,6 37 60 0,0
20.01.2020 10:00:00 1,4 -2,0 -0,6 5,1 8 4 16 9 NNO 1039,7 26 60 0,0
20.01.2020 09:00:00 -0,2 -2,4 -2,0 5,2 8 5 11 6 NO 1039,3 22 7 0,0
20.01.2020 08:00:00 -0,1 -2,6 -2,5 5,3 9 5 14 8 NNO 1038,7 22 0 0,0
20.01.2020 07:00:00 -0,1 -2,6 -2,4 5,4 5 3 18 10 NO 1038,1 25 0 0,0
20.01.2020 06:00:00 0,8 -2,1 -0,3 5,5 13 7 22 12 NNO 1037,7 27 0 0,0
20.01.2020 05:00:00 1,0 -1,9 -0,1 5,5 16 9 25 13 NNO 1037,4 26 0 0,0
20.01.2020 04:00:00 1,3 -1,9 0,3 5,6 13 7 26 14 NNO 1037,4 29 0 0,0
20.01.2020 03:00:00 1,6 -1,8 0,5 5,7 17 9 34 18 N 1037,2 31 0 0,0
20.01.2020 02:00:00 1,9 -1,7 0,9 5,8 18 10 35 19 N 1037,1 32 0 0,0
20.01.2020 01:00:00 2,0 -1,4 1,2 5,8 22 12 40 22 N 1036,9 33 0 0,0
20.01.2020 00:00:00 2,3 -1,3 1,3 5,9 24 13 44 24 N 1036,8 26 0 0,0
19.01.2020 23:00:00 2,5 -1,3 1,7 6,0 28 15 47 26 N 1036,3 37 0 0,0
19.01.2020 22:00:00 2,9 -1,3 2,0 6,0 27 14 46 25 N 1036,4 37 0 0,0
19.01.2020 21:00:00 3,1 -1,1 2,1 6,1 29 16 48 26 N 1036,2 35 0 0,0
19.01.2020 20:00:00 3,5 -1,1 2,6 6,1 26 14 53 28 N 1035,6 40 0 0,0
19.01.2020 19:00:00 4,1 -2,3 3,1 6,1 29 16 49 26 N 1035,1 56 0 0,0
19.01.2020 18:00:00 4,4 -2,0 3,5 6,1 33 18 55 30 N 1034,3 52 0 0,0
19.01.2020 17:00:00 5,3 -1,4 4,7 6,1 30 16 63 34 N 1033,6 39 48 0,0
19.01.2020 16:00:00 6,0 -1,2 7,1 6,0 37 20 61 33 N 1033,2 40 60 0,0
19.01.2020 15:00:00 6,0 -0,5 7,3 5,9 40 22 60 33 N 1032,7 35 60 0,0
19.01.2020 14:00:00 5,6 -0,5 7,5 5,9 36 19 61 33 N 1032,7 37 58 0,0
19.01.2020 13:00:00 5,0 -1,0 6,5 5,9 25 13 54 29 N 1033,0 39 46 0,0
19.01.2020 12:00:00 4,7 -1,3 5,5 5,9 31 17 49 26 N 1032,8 41 49 0,0
19.01.2020 11:00:00 3,3 -1,1 2,4 6,0 20 11 42 23 N 1032,5 20 30 0,0
19.01.2020 10:00:00 2,0 -0,9 1,3 6,1 24 13 38 21 N 1031,8 28 0 0,0
19.01.2020 09:00:00 1,5 -0,6 0,8 6,2 23 12 36 19 NNO 1031,4 29 0 0,0
19.01.2020 08:00:00 1,5 -0,6 0,9 6,2 25 14 37 20 NNO 1030,7 33 0 0,0
19.01.2020 07:00:00 1,8 -0,1 1,2 6,3 20 11 40 21 N 1030,2 34 0 0,0
19.01.2020 06:00:00 2,0 -0,1 1,3 6,4 19 11 32 18 N 1029,7 30 0 0,0

tt = Temperatura
td = dewpoint
tt 5cm = Temperatura 5cm
tt -20cm = Temperatura -20cm
ff = velocità del vento
fx = gusts
dd = direzione del vento
ppp = reduced air pressure
vv = visibility
sd = ore di luce
rr = precipitazioni

Stazioni seguenti

WeatherPro
AMSI
MeteoEarth